Wise, VA

10:59 AM EDT on April 25, 2017 (GMT -0400)
Lonesome Pine

Weather History for KLNP - November, 2011

Change the Weather History Date:

Sunday, November 13, 2011

  Actual Average Record
Temperature  
Mean Temperature 50 °F -  
Max Temperature 57 °F 51 °F 66 °F (1999)
Min Temperature 44 °F 34 °F 19 °F (2013)
Degree Days  
Heating Degree Days 14    
Moisture  
Dew Point 27 °F    
Average Humidity 37    
Maximum Humidity 51    
Minimum Humidity 26    
Precipitation  
Precipitation 0.00 in - - ()
Sea Level Pressure  
Sea Level Pressure 30.08 in    
Wind  
Wind Speed 13 mph (SSW)    
Max Wind Speed 20 mph    
Max Gust Speed 29 mph    
Visibility 10 miles    
Events      
Averages and records for this station are not official NWS values.
T = Trace of Precipitation, MM = Missing Value Source: NWS Daily Summary

Daily Weather History Graph

Daily Weather History Graph

Search for Another Location

Airport or City:

Trip Planner

Search our weather history database for the weather conditions in past years. The results will help you decide how hot, cold, wet, or windy it might be!

Date:

Astronomy

Nov. 13, 2011 Rise Set
Actual Time 7:06 AM EST 5:22 PM EST
Civil Twilight 6:38 AM EST 5:49 PM EST
Nautical Twilight 6:07 AM EST 6:20 PM EST
Astronomical Twilight 5:36 AM EST 6:51 PM EST
Moon 7:32 PM EST (11/13) 9:35 AM EST (11/13)
Length of Visible Light 11h 10m
Length of Day
10h 15m
Waning Gibbous, 93% of the Moon is Illuminated
Nov 13
Waning Gibbous
Nov 18
Last Quarter
Nov 25
New
Dec 2
First Quarter
Dec 10
Full

Hourly Weather History & Observations

Time (EST) Temp. Windchill Dew Point Humidity Pressure Visibility Wind Dir Wind Speed Gust Speed Precip Events Conditions
12:15 AM 51.8 °F - 21.2 °F 30% 30.12 in 10.0 mi South 12.7 mph 18.4 mph N/A   Unknown
12:35 AM 51.8 °F - 21.2 °F 30% 30.12 in 10.0 mi South 16.1 mph 23.0 mph N/A   Unknown
12:55 AM 51.8 °F - 21.2 °F 30% 30.12 in 10.0 mi South 15.0 mph 24.2 mph N/A   Unknown
1:15 AM 51.8 °F - 19.4 °F 28% 30.12 in 10.0 mi South 13.8 mph 18.4 mph N/A   Unknown
1:35 AM 51.8 °F - 19.4 °F 28% 30.12 in 10.0 mi South 15.0 mph 21.9 mph N/A   Unknown
1:55 AM 51.8 °F - 19.4 °F 28% 30.11 in 10.0 mi South 15.0 mph 24.2 mph N/A   Unknown
2:15 AM 51.8 °F - 17.6 °F 26% 30.10 in 10.0 mi South 16.1 mph - N/A   Unknown
2:35 AM 51.8 °F - 17.6 °F 26% 30.10 in 10.0 mi South 17.3 mph 23.0 mph N/A   Unknown
2:55 AM 50.0 °F - 19.4 °F 30% 30.11 in 10.0 mi SSW 11.5 mph - N/A   Unknown
3:15 AM 48.2 °F - 19.4 °F 32% 30.09 in 10.0 mi South 16.1 mph 20.7 mph N/A   Unknown
3:35 AM 50.0 °F - 19.4 °F 30% 30.10 in 10.0 mi SW 6.9 mph - N/A   Unknown
3:55 AM 46.4 °F 42.9 °F 21.2 °F 37% 30.11 in 10.0 mi SSW 6.9 mph - N/A   Unknown
4:15 AM 48.2 °F - 21.2 °F 34% 30.11 in 10.0 mi SSW 9.2 mph - N/A   Unknown
4:35 AM 46.4 °F 41.9 °F 23.0 °F 40% 30.11 in 10.0 mi SSW 9.2 mph - N/A   Unknown
4:55 AM 46.4 °F 41.9 °F 23.0 °F 40% 30.12 in 10.0 mi SW 9.2 mph - N/A   Unknown
5:15 AM 44.6 °F 40.2 °F 23.0 °F 43% 30.12 in 10.0 mi SW 8.1 mph - N/A   Unknown
5:35 AM 46.4 °F 42.4 °F 23.0 °F 40% 30.12 in 10.0 mi SW 8.1 mph - N/A   Unknown
5:55 AM 44.6 °F 41.4 °F 21.2 °F 39% 30.13 in 10.0 mi WSW 5.8 mph - N/A   Unknown
6:15 AM 46.4 °F 42.4 °F 21.2 °F 37% 30.13 in 10.0 mi WSW 8.1 mph - N/A   Unknown
6:35 AM 46.4 °F 41.5 °F 21.2 °F 37% 30.13 in 10.0 mi SW 10.4 mph - N/A   Unknown
6:55 AM 46.4 °F 40.7 °F 21.2 °F 37% 30.13 in 10.0 mi SSW 12.7 mph - N/A   Unknown
7:15 AM 46.4 °F 41.5 °F 21.2 °F 37% 30.13 in 10.0 mi SSW 10.4 mph - N/A   Unknown
7:35 AM 46.4 °F 43.5 °F 21.2 °F 37% 30.14 in 10.0 mi SW 5.8 mph - N/A   Unknown
7:55 AM 46.4 °F 43.5 °F 23.0 °F 40% 30.15 in 10.0 mi SSW 5.8 mph - N/A   Unknown
8:15 AM 46.4 °F 42.4 °F 21.2 °F 37% 30.15 in 10.0 mi SW 8.1 mph - N/A   Unknown
8:35 AM 50.0 °F - 19.4 °F 30% 30.15 in 10.0 mi South 10.4 mph - N/A   Unknown
8:55 AM 51.8 °F - 19.4 °F 28% 30.14 in 10.0 mi SSW 9.2 mph - N/A   Unknown
9:15 AM 53.6 °F - 21.2 °F 28% 30.14 in 10.0 mi SSW 9.2 mph 16.1 mph N/A   Unknown
9:35 AM 53.6 °F - 23.0 °F 30% 30.14 in 10.0 mi SSW 13.8 mph 19.6 mph N/A   Unknown
9:55 AM 53.6 °F - 24.8 °F 33% 30.14 in 10.0 mi SSW 11.5 mph 20.7 mph N/A   Unknown
10:15 AM 53.6 °F - 28.4 °F 38% 30.14 in 10.0 mi SSW 16.1 mph 28.8 mph N/A   Unknown
10:55 AM 53.6 °F - 23.0 °F 30% 30.12 in 10.0 mi South 17.3 mph 20.7 mph N/A   Unknown
11:15 AM 53.6 °F - 21.2 °F 28% 30.12 in 10.0 mi South 16.1 mph - N/A   Unknown
11:55 AM 53.6 °F - 24.8 °F 33% 30.09 in 10.0 mi South 19.6 mph 26.5 mph N/A   Unknown
12:15 PM 53.6 °F - 23.0 °F 30% 30.08 in 10.0 mi South 9.2 mph - N/A   Unknown
12:35 PM 55.4 °F - 28.4 °F 36% 30.06 in 10.0 mi South 11.5 mph 20.7 mph N/A   Unknown
12:55 PM 55.4 °F - 28.4 °F 36% 30.06 in 10.0 mi South 10.4 mph 20.7 mph N/A   Unknown
1:35 PM 55.4 °F - 28.4 °F 36% 30.04 in 10.0 mi South 12.7 mph 17.3 mph N/A   Unknown
1:55 PM 55.4 °F - 26.6 °F 33% 30.03 in 10.0 mi South 13.8 mph 19.6 mph N/A   Unknown
2:15 PM 55.4 °F - 26.6 °F 33% 30.03 in 10.0 mi South 15.0 mph 23.0 mph N/A   Unknown
2:35 PM 57.2 °F - 30.2 °F 36% 30.02 in 10.0 mi South 11.5 mph 20.7 mph N/A   Unknown
2:55 PM 57.2 °F - 32.0 °F 38% 30.03 in 10.0 mi South 13.8 mph 21.9 mph N/A   Unknown
3:15 PM 57.2 °F - 33.8 °F 41% 30.01 in 10.0 mi South 16.1 mph 23.0 mph N/A   Unknown
3:35 PM 57.2 °F - 33.8 °F 41% 30.02 in 10.0 mi South 15.0 mph 25.3 mph N/A   Unknown
3:55 PM 57.2 °F - 33.8 °F 41% 30.01 in 10.0 mi SSE 15.0 mph 20.7 mph N/A   Unknown
4:15 PM 57.2 °F - 32.0 °F 38% 30.02 in 10.0 mi South 11.5 mph 20.7 mph N/A   Unknown
4:35 PM 57.2 °F - 32.0 °F 38% 30.01 in 10.0 mi South 13.8 mph 23.0 mph N/A   Unknown
4:55 PM 57.2 °F - 33.8 °F 41% 30.02 in 10.0 mi South 12.7 mph 18.4 mph N/A   Unknown
5:15 PM 55.4 °F - 33.8 °F 44% 30.02 in 10.0 mi South 15.0 mph 21.9 mph N/A   Unknown
6:15 PM 55.4 °F - 37.4 °F 51% 30.04 in 10.0 mi South 11.5 mph - N/A   Unknown
6:35 PM 55.4 °F - 37.4 °F 51% 30.04 in 10.0 mi South 12.7 mph 18.4 mph N/A   Unknown
6:55 PM 55.4 °F - 35.6 °F 47% 30.05 in 10.0 mi South 10.4 mph 17.3 mph N/A   Unknown
7:15 PM 55.4 °F - 37.4 °F 51% 30.05 in 10.0 mi South 15.0 mph 21.9 mph N/A   Unknown
7:35 PM 55.4 °F - 37.4 °F 51% 30.04 in 10.0 mi South 12.7 mph 24.2 mph N/A   Unknown
7:55 PM 57.2 °F - 37.4 °F 48% 30.04 in 10.0 mi South 15.0 mph 25.3 mph N/A   Unknown
8:15 PM 57.2 °F - 37.4 °F 48% 30.04 in 10.0 mi South 13.8 mph 23.0 mph N/A   Unknown
8:35 PM 57.2 °F - 37.4 °F 48% 30.04 in 10.0 mi South 16.1 mph 24.2 mph N/A   Unknown
8:55 PM 57.2 °F - 37.4 °F 48% 30.04 in 10.0 mi South 16.1 mph 24.2 mph N/A   Unknown
9:15 PM 57.2 °F - 37.4 °F 48% 30.04 in 10.0 mi South 16.1 mph 26.5 mph N/A   Unknown
9:35 PM 55.4 °F - 37.4 °F 51% 30.04 in 10.0 mi South 15.0 mph 20.7 mph N/A   Unknown
9:55 PM 55.4 °F - 37.4 °F 51% 30.05 in 10.0 mi South 15.0 mph - N/A   Unknown
10:15 PM 57.2 °F - 39.2 °F 51% 30.05 in 10.0 mi SSW 18.4 mph 26.5 mph N/A   Unknown
10:35 PM 57.2 °F - 41.0 °F 55% 30.05 in 10.0 mi South 18.4 mph 26.5 mph N/A   Unknown
10:55 PM 57.2 °F - 42.8 °F 59% 30.05 in 10.0 mi SSW 15.0 mph 24.2 mph N/A   Unknown
11:15 PM 57.2 °F - 44.6 °F 63% 30.05 in 10.0 mi SW 15.0 mph 27.6 mph N/A   Unknown
11:35 PM 60.8 °F - 44.6 °F 55% 30.06 in 10.0 mi SW 21.9 mph 34.5 mph N/A   Unknown
11:55 PM 60.8 °F - 44.6 °F 55% 30.06 in 10.0 mi SW 20.7 mph 31.1 mph N/A   Unknown